Location: Harwich
(41.7160°N, 69.9939°W)
Time: 09:50:38
(UTC+02:00)

A-11 Canister half - Pass Details

Date: 02 March 2024
Orbit: 1513 x 1686 km, 47.2° (Epoch: 24 April)

Event Time Altitude Azimuth Distance (km) Brightness Sun altitude
Exits shadow 11:19:32 - 295° (WNW) 4,100 10.7 -10.7°
Reaches altitude 10° 11:20:06 10° 295° (WNW) 3,923 10.6 -10.6°
Maximum altitude 11:30:10 82° 210° (SSW) 1,645 9.1 -8.7°
Drops below altitude 10° 11:39:50 10° 124° (SE) 3,783 12.1 -6.9°
Sets 11:42:51 0° 124° (SE) 4,743 12.7 -6.3°
